Location: Riverside Cemetery
(38.3047°N, 99.7773°W)
Time: 03:43:05
(UTC+00:00)

Cosmos 540 Rocket - Pass Details

Date: 19 September 2020
Orbit: 740 x 753 km, 74.1° (Epoch: 22 October)

Event Time Altitude Azimuth Distance (km) Brightness Sun altitude
Rises 11:08:58 0° 187° (S) 3,179 6.5 -15.5°
Reaches altitude 10° 11:11:20 10° 183° (S) 2,261 5.8 -15.1°
Maximum altitude 11:16:23 60° 104° (ESE) 860 4.0 -14.1°
Drops below altitude 10° 11:21:27 10° 26° (NNE) 2,282 6.5 -13.1°
Sets 11:23:51 0° 23° (NNE) 3,211 7.2 -12.7°
